Location: Meriden
(44.0740°N, 93.3870°W)
Time: 10:37:21
(UTC-06:00)

Amateur Radio Satellites - All Passes

Search period start: 19 December 2014 10:07
Search period end: 20 December 2014 10:07
Location: Meriden, 44.0740°N, 93.3870°W

Satellite Date Start Highest point End Downlink Frequencies (MHz)
Time Altitude Azimuth
DX 1 19 Dec 10:07:25 10:11:45 68° 102° (ESE) 10:16:04 434.975-435.025
DOVE 4 19 Dec 10:11:53 10:16:25 50° 288° (WNW) 10:21:12 437.250
POPSAT HIP 1 19 Dec 10:13:04 10:17:15 76° 75° (ENE) 10:21:29 437.405
MaSat-1 19 Dec 10:15:54 10:17:06 13° 306° (NW) 10:18:16 437.345
CUBEBUG 1 19 Dec 10:16:03 10:16:49 10° 88° (E) 10:17:35 437.445
RS-15 19 Dec 10:19:51 10:26:36 19° 98° (E) 10:33:18 29.354- 29.394
DELFI C3 19 Dec 10:22:43 10:26:50 69° 285° (WNW) 10:30:55 145.870
UNISAT 6 19 Dec 10:23:09 10:27:26 56° 260° (W) 10:31:51 437.425
50 SAT 19 Dec 10:25:12 10:28:54 31° 96° (E) 10:32:36 437.505
Oscar 11 19 Dec 10:32:49 10:37:02 48° 288° (WNW) 10:41:13 145.826/435.025
HUMSAT D 19 Dec 10:35:15 10:39:29 50° 100° (E) 10:43:42 437.325/437.525
CUSAT 1 19 Dec 10:37:15 10:40:40 38° 290° (WNW) 10:45:11 437.405
UKube-1 19 Dec 10:40:16 10:44:31 56° 288° (WNW) 10:48:45 .
YUBILEINY 19 Dec 10:41:30 10:49:58 53° 75° (ENE) 10:58:23 435.215
CUBEBUG 2 19 Dec 10:41:47 10:46:20 62° 286° (WNW) 10:50:59 437.445
DUCHIFAT 1 19 Dec 10:42:02 10:46:07 52° 260° (W) 10:50:15 145.980
BRITE-PL 19 Dec 10:44:35 10:47:15 15° 297° (WNW) 10:50:02 437.365/2234.400
BUGSAT 1 19 Dec 10:48:25 10:52:26 53° 260° (W) 10:56:26 437.445
CINEMA 3 19 Dec 10:48:44 10:52:59 35° 290° (WNW) 10:57:23 145.822/145.860
ESTCUBE 1 19 Dec 10:53:01 10:56:57 29° 96° (E) 11:00:51 437.505/2401.250
QB50P2 19 Dec 10:54:43 10:58:38 37° 262° (W) 11:02:34 145.880/145.840
VELOX 1 19 Dec 10:55:40 11:00:06 75° 103° (ESE) 11:04:31 145.980
ANTELSAT 19 Dec 10:55:44 10:59:25 26° 266° (W) 11:03:12 437.575/2403.000
ZACube-1 19 Dec 10:59:02 11:03:27 55° 287° (WNW) 11:07:55 437.345
AAUSAT CUBESAT 2 19 Dec 10:59:50 11:02:05 14° 298° (WNW) 11:04:20 437.432
POLYITAN 1 19 Dec 11:03:15 11:06:58 30° 264° (W) 11:10:44 437.675
NANOSAT C BR1 19 Dec 11:06:56 11:10:34 28° 264° (W) 11:14:14 145.865
GOMX 1 19 Dec 11:20:55 11:21:17 10° 301° (WNW) 11:21:40 467.674
QB50P1 19 Dec 11:21:42 11:24:50 20° 267° (W) 11:27:59 145.935-145.965
DANDE 19 Dec 11:23:28 11:25:56 16° 300° (WNW) 11:28:50 436.750
UWE-3 19 Dec 11:23:38 11:27:31 28° 292° (WNW) 11:31:28 435.000/436.395/437.385
FUNcube-1 19 Dec 11:26:38 11:30:34 30° 292° (WNW) 11:34:32 145.935
Oscar 19 19 Dec 11:26:38 11:29:44 16° 59° (ENE) 11:32:51 437.125/150
SPROUT 19 Dec 11:28:22 11:30:59 16° 91° (E) 11:33:36 437.525
TISAT 1 19 Dec 11:29:46 11:32:32 17° 92° (E) 11:35:18 437.305
O/OREOS (USA 219) 19 Dec 11:30:06 11:34:15 37° 254° (WSW) 11:38:25 437.305
TIGRISAT 19 Dec 11:34:58 11:36:21 11° 272° (W) 11:37:43 435.000
AISAT 19 Dec 11:38:16 11:42:23 39° 290° (WNW) 11:46:31 437.250
DX 1 19 Dec 11:45:19 11:47:28 14° 300° (WNW) 11:49:36 434.975-435.025
HO-68 19 Dec 11:47:02 11:50:33 15° 312° (NW) 11:54:04 435.675
CUBEBUG 1 19 Dec 11:49:23 11:53:43 76° 285° (WNW) 11:58:02 437.445
50 SAT 19 Dec 12:00:38 12:04:00 24° 293° (WNW) 12:07:22 437.505
HUMSAT D 19 Dec 12:12:05 12:14:54 17° 296° (WNW) 12:17:43 437.325/437.525
RS-15 19 Dec 12:26:06 12:37:00 79° 120° (ESE) 12:47:59 29.354- 29.394
ESTCUBE 1 19 Dec 12:29:53 12:33:47 29° 293° (WNW) 12:37:39 437.505/2401.250
VELOX 1 19 Dec 12:34:08 12:36:05 13° 300° (WNW) 12:38:02 145.980
YUBILEINY 19 Dec 12:38:48 12:46:26 36° 275° (W) 12:54:04 435.215
PCSat 19 Dec 13:02:30 13:05:57 17° 105° (ESE) 13:09:25 145.827
SPROUT 19 Dec 13:03:12 13:07:22 50° 288° (WNW) 13:11:31 437.525
Oscar 19 19 Dec 13:03:20 13:08:27 75° 257° (WSW) 13:13:39 437.125/150
Gurwin Techsat 1B 19 Dec 13:03:45 13:08:15 29° 65° (ENE) 13:12:46 435.225
TISAT 1 19 Dec 13:04:34 13:08:35 45° 289° (WNW) 13:12:37 437.305
ITUPSAT 1 19 Dec 13:12:17 13:16:33 31° 96° (E) 13:20:46 437.325
SWISSCUBE 19 Dec 13:12:19 13:16:41 35° 97° (E) 13:21:01 437.505
BEESAT 3 19 Dec 13:13:58 13:17:30 28° 115° (ESE) 13:21:05 437.485
AIST 2 19 Dec 13:14:47 13:16:42 13° 108° (ESE) 13:18:37 435.215
ITAMSAT 1 19 Dec 13:16:02 13:21:06 58° 71° (ENE) 13:26:11 435.822/435.867
BEESAT 19 Dec 13:37:24 13:42:07 57° 101° (E) 13:46:48 436.000
AUBIESAT-1 19 Dec 13:41:07 13:44:22 20° 96° (E) 13:47:24 437.475
ISS 19 Dec 13:42:40 13:45:18 22° 136° (SE) 13:47:56 145.825
BEESAT 2 19 Dec 13:51:56 13:56:00 63° 121° (ESE) 14:00:09 435.950
HORYU 2 19 Dec 13:56:36 14:00:32 32° 68° (ENE) 14:04:31 437.375
AO-7 19 Dec 13:59:39 14:06:42 32° 55° (NE) 14:13:46 29.400- 29.500
M-CUBED/EXP-1 PRIME 19 Dec 14:05:06 14:09:18 40° 102° (ESE) 14:13:08 437.505
RS-15 19 Dec 14:40:29 14:50:28 39° 327° (NNW) 15:00:40 29.354- 29.394
GONETS M04 19 Dec 14:41:57 14:45:54 13° 53° (NE) 14:49:48
Gurwin Techsat 1B 19 Dec 14:43:05 14:48:03 40° 262° (W) 14:53:03 435.225
PCSat 19 Dec 14:43:21 14:48:45 72° 303° (WNW) 14:54:11 145.827
ITUPSAT 1 19 Dec 14:50:13 14:54:23 30° 294° (WNW) 14:58:30 437.325
SWISSCUBE 19 Dec 14:50:24 14:54:26 28° 294° (WNW) 14:58:26 437.505
AIST 2 19 Dec 14:50:30 14:54:44 72° 306° (NW) 14:59:03 435.215
BEESAT 3 19 Dec 14:51:52 14:55:36 32° 313° (NW) 14:59:24 437.485
ITAMSAT 1 19 Dec 14:57:22 15:00:58 19° 268° (W) 15:04:35 435.822/435.867
STARS 19 Dec 15:01:47 15:06:11 61° 101° (ESE) 15:10:34 437.465
KKS-1 19 Dec 15:02:36 15:07:06 89° 282° (WNW) 15:11:35 437.445
AUBIESAT-1 19 Dec 15:15:22 15:19:32 40° 296° (WNW) 15:23:22 437.475
BEESAT 19 Dec 15:16:19 15:19:32 18° 298° (WNW) 15:22:44 436.000
ISS 19 Dec 15:18:25 15:21:40 55° 333° (NNW) 15:24:55 145.825
BEESAT 2 19 Dec 15:31:41 15:34:40 19° 320° (NW) 15:37:41 435.950
JAS-2 19 Dec 15:32:56 15:39:56 42° 67° (ENE) 15:46:22 435.910
HORYU 2 19 Dec 15:33:25 15:37:12 27° 265° (W) 15:41:02 437.375
M-CUBED/EXP-1 PRIME 19 Dec 15:40:33 15:44:02 22° 302° (WNW) 15:47:18 437.505
AO-7 19 Dec 15:50:39 15:58:54 67° 255° (WSW) 16:07:16 29.400- 29.500
MOZHAYETS 4 19 Dec 16:04:06 16:06:44 15° 90° (E) 16:09:21
Cubesat XI-IV 19 Dec 16:04:11 16:06:58 15° 57° (ENE) 16:09:45 437.490
PCSat 19 Dec 16:29:52 16:33:09 16° 324° (NW) 16:36:27 145.827
AIST 2 19 Dec 16:32:01 16:34:09 13° 326° (NW) 16:36:16 435.215
CUTE-I 19 Dec 16:35:55 16:40:14 26° 63° (ENE) 16:44:34 437.470
GONETS M04 19 Dec 16:36:11 16:44:54 62° 77° (ENE) 16:53:28
STARS 19 Dec 16:39:37 16:42:11 15° 299° (WNW) 16:44:44 437.465
KKS-1 19 Dec 16:41:59 16:43:01 11° 302° (WNW) 16:44:03 437.445
AIST 1 19 Dec 16:52:19 16:56:43 88° 278° (W) 17:01:07
ISS 19 Dec 16:56:05 16:58:45 22° 353° (N) 17:01:26 145.825
RS-15 19 Dec 16:58:21 17:07:00 25° 1° (N) 17:15:52 29.354- 29.394
PRISM 19 Dec 17:16:37 17:17:34 11° 89° (E) 17:18:30 437.425
JAS-2 19 Dec 17:17:37 17:24:52 44° 262° (W) 17:31:36 435.910
MOZHAYETS 4 19 Dec 17:39:47 17:44:22 60° 287° (WNW) 17:48:53
Cubesat XI-IV 19 Dec 17:40:58 17:46:19 88° 256° (WSW) 17:51:40 437.490
AO-7 19 Dec 17:50:02 17:53:14 13° 275° (W) 17:56:28 29.400- 29.500
MaSat-1 19 Dec 18:10:54 18:13:10 40° 60° (ENE) 18:15:34 437.345
CUTE-I 19 Dec 18:14:57 18:20:03 46° 261° (W) 18:25:10 437.470
ISS 19 Dec 18:33:14 18:36:04 26° 13° (NNE) 18:38:53 145.825
GONETS M04 19 Dec 18:33:50 18:41:06 31° 278° (W) 18:48:20
DANDE 19 Dec 18:35:26 18:38:13 12° 57° (ENE) 18:41:08 436.750
HO-68 19 Dec 18:41:06 18:46:39 25° 56° (NE) 18:52:12 435.675
STRAND 1 19 Dec 18:42:27 18:47:14 40° 98° (E) 18:51:59 437.568
PRISM 19 Dec 18:49:25 18:53:35 69° 286° (WNW) 18:57:41 437.425
CANX-2 19 Dec 18:52:21 18:53:56 12° 60° (ENE) 18:55:31 2200.000
CUBESAT XI-V 19 Dec 18:59:28 19:04:06 71° 102° (ESE) 19:08:40 437.345
RS-15 19 Dec 19:13:06 19:23:28 41° 35° (NE) 19:34:12 29.354- 29.394
GOMX 1 19 Dec 19:14:04 19:16:08 14° 62° (ENE) 19:18:12 467.674
COMPASS 1 19 Dec 19:16:32 19:18:47 14° 62° (ENE) 19:21:02 437.405
SEEDS 19 Dec 19:19:50 19:22:43 18° 64° (ENE) 19:25:37 437.485
CUTE 1.7 + AOD 2 19 Dec 19:21:24 19:24:38 21° 66° (ENE) 19:27:54 437.475
Cubesat XI-IV 19 Dec 19:25:23 19:27:08 12° 273° (W) 19:28:54 437.490
CUSAT 1 19 Dec 19:29:40 19:36:16 32° 69° (ENE) 19:43:36 437.405
DOVE 4 19 Dec 19:43:19 19:46:21 20° 65° (ENE) 19:49:25 437.250
Oscar 11 19 Dec 19:54:33 19:57:21 17° 63° (ENE) 20:00:09 145.826/435.025
UKube-1 19 Dec 20:02:30 20:05:14 17° 62° (ENE) 20:07:57 .
CUBEBUG 2 19 Dec 20:07:37 20:09:52 14° 62° (ENE) 20:12:09 437.445
ISS 19 Dec 20:09:40 20:12:57 87° 212° (SSW) 20:16:13 145.825
AAUSAT CUBESAT 2 19 Dec 20:15:21 20:19:25 49° 72° (ENE) 20:23:31 437.432
DANDE 19 Dec 20:15:46 20:23:03 55° 75° (ENE) 20:31:26 436.750
CINEMA 3 19 Dec 20:15:55 20:19:24 26° 67° (ENE) 20:22:58 145.822/145.860
BRITE-PL 19 Dec 20:17:45 20:21:57 89° 76° (ENE) 20:26:07 437.365/2234.400
STRAND 1 19 Dec 20:21:59 20:26:15 28° 295° (WNW) 20:30:30 437.568
ZACube-1 19 Dec 20:22:36 20:25:00 15° 62° (ENE) 20:27:26 437.345
CANX-2 19 Dec 20:24:59 20:29:15 76° 258° (WSW) 20:33:34 2200.000
HO-68 19 Dec 20:26:30 20:33:41 75° 255° (WSW) 20:40:54 435.675
BEESAT 2 19 Dec 20:34:11 20:35:50 12° 33° (NNE) 20:37:28 435.950
CUBESAT XI-V 19 Dec 20:38:35 20:40:57 14° 299° (WNW) 20:43:19 437.345
UWE-3 19 Dec 20:46:18 20:49:57 30° 68° (ENE) 20:53:40 435.000/436.395/437.385
FUNcube-1 19 Dec 20:48:20 20:51:51 26° 67° (ENE) 20:55:25 145.935
GOMX 1 19 Dec 20:49:43 20:53:48 58° 260° (W) 20:57:56 467.674
COMPASS 1 19 Dec 20:49:51 20:54:01 60° 259° (W) 20:58:14 437.405
SEEDS 19 Dec 20:54:08 20:58:12 45° 261° (W) 21:02:20 437.485
CUTE 1.7 + AOD 2 19 Dec 20:56:22 21:00:20 38° 263° (W) 21:04:21 437.475
AISAT 19 Dec 21:02:07 21:05:40 24° 66° (ENE) 21:09:13 437.250
DX 1 19 Dec 21:04:26 21:08:45 72° 74° (ENE) 21:13:05 434.975-435.025
SO-50 19 Dec 21:06:53 21:11:07 41° 117° (ESE) 21:15:30 436.795
CUSAT 1 19 Dec 21:12:15 21:19:43 64° 265° (W) 21:28:05 437.405
DELFI C3 19 Dec 21:12:27 21:16:34 90° 71° (ENE) 21:20:44 145.870
CUBEBUG 1 19 Dec 21:13:48 21:15:36 12° 60° (ENE) 21:17:23 437.445
50 SAT 19 Dec 21:15:27 21:18:43 24° 67° (ENE) 21:22:01 437.505
DOVE 4 19 Dec 21:20:05 21:23:54 36° 263° (W) 21:27:48 437.250
RS-15 19 Dec 21:25:40 21:36:54 77° 241° (WSW) 21:48:38 29.354- 29.394
Oscar 11 19 Dec 21:28:54 21:33:07 51° 260° (W) 21:37:23 145.826/435.025
HUMSAT D 19 Dec 21:29:08 21:33:02 42° 71° (ENE) 21:37:00 437.325/437.525
BEESAT 3 19 Dec 21:31:58 21:35:45 32° 46° (NE) 21:39:29 437.485
AIST 2 19 Dec 21:33:26 21:36:29 19° 39° (NE) 21:39:31 435.215
UKube-1 19 Dec 21:36:45 21:40:59 53° 259° (W) 21:45:14 .
CUBEBUG 2 19 Dec 21:41:58 21:46:04 59° 260° (W) 21:50:18 437.445
TIGRISAT 19 Dec 21:46:28 21:49:06 15° 90° (E) 21:51:43 435.000
PCSat 19 Dec 21:47:04 21:51:26 24° 43° (NE) 21:55:46 145.827
ISS 19 Dec 21:47:45 21:49:04 12° 229° (SW) 21:50:22 145.825
AAUSAT CUBESAT 2 19 Dec 21:52:53 21:55:22 15° 269° (W) 21:57:53 437.432
CINEMA 3 19 Dec 21:52:59 21:56:34 28° 265° (W) 22:00:14 145.822/145.860
ESTCUBE 1 19 Dec 21:54:16 21:58:20 33° 68° (ENE) 22:02:24 437.505/2401.250
VELOX 1 19 Dec 21:54:54 21:59:19 81° 75° (ENE) 22:03:46 145.980
ZACube-1 19 Dec 21:56:49 22:00:55 55° 260° (W) 22:05:07 437.345
POPSAT HIP 1 19 Dec 21:59:31 22:00:50 11° 89° (E) 22:02:08 437.405
DANDE 19 Dec 21:59:35 22:06:22 37° 270° (W) 22:14:00 436.750
BEESAT 2 19 Dec 22:10:45 22:14:56 63° 53° (NE) 22:19:03 435.950
UNISAT 6 19 Dec 22:14:00 22:18:03 28° 95° (E) 22:22:06 437.425
HO-68 19 Dec 22:19:29 22:22:33 13° 274° (W) 22:25:38 435.675
UWE-3 19 Dec 22:23:02 22:26:30 25° 266° (W) 22:30:03 435.000/436.395/437.385
TISAT 1 19 Dec 22:24:25 22:27:06 17° 63° (ENE) 22:29:48 437.305
FUNcube-1 19 Dec 22:24:30 22:28:08 28° 265° (W) 22:31:50 145.935
SPROUT 19 Dec 22:24:44 22:27:19 16° 63° (ENE) 22:29:54 437.525
DUCHIFAT 1 19 Dec 22:26:20 22:29:40 22° 94° (E) 22:33:00 145.980
BUGSAT 1 19 Dec 22:30:16 22:33:10 19° 93° (E) 22:36:04 437.445
AISAT 19 Dec 22:38:04 22:42:07 35° 263° (W) 22:46:11 437.250
QB50P2 19 Dec 22:38:50 22:42:38 31° 96° (E) 22:46:26 145.880/145.840
DX 1 19 Dec 22:44:09 22:45:29 11° 271° (W) 22:46:49 434.975-435.025
ANTELSAT 19 Dec 22:45:25 22:50:05 58° 101° (E) 22:54:44 437.575/2403.000
CUBEBUG 1 19 Dec 22:47:00 22:51:22 75° 257° (WSW) 22:55:45 437.445
POLYITAN 1 19 Dec 22:47:10 22:51:11 38° 98° (E) 22:55:11 437.675
SO-50 19 Dec 22:47:45 22:51:47 29° 317° (NW) 22:55:56 436.795
NANOSAT C BR1 19 Dec 22:50:14 22:54:16 40° 98° (E) 22:58:16 145.865
50 SAT 19 Dec 22:50:21 22:53:50 29° 264° (W) 22:57:23 437.505
CUSAT 1 19 Dec 22:58:22 23:01:42 13° 281° (W) 23:05:10 437.405
QB50P1 19 Dec 23:04:21 23:08:34 58° 101° (E) 23:12:46 145.935-145.965
HUMSAT D 19 Dec 23:06:19 23:09:04 17° 268° (W) 23:11:50 437.325/437.525
BEESAT 3 19 Dec 23:10:14 23:13:53 30° 245° (WSW) 23:17:29 437.485
AIST 2 19 Dec 23:11:17 23:15:34 69° 238° (WSW) 23:19:47 435.215
BEESAT 19 Dec 23:12:16 23:13:07 10° 56° (ENE) 23:13:58 436.000
TIGRISAT 19 Dec 23:21:36 23:26:15 64° 287° (WNW) 23:30:54 435.000
M-CUBED/EXP-1 PRIME 19 Dec 23:23:53 23:25:33 12° 51° (NE) 23:27:14 437.505
PCSat 19 Dec 23:29:56 23:35:19 66° 243° (WSW) 23:40:40 145.827
ESTCUBE 1 19 Dec 23:31:25 23:35:14 26° 265° (W) 23:39:03 437.505/2401.250
POPSAT HIP 1 19 Dec 23:32:56 23:37:11 69° 286° (WNW) 23:41:26 437.405
VELOX 1 19 Dec 23:36:21 23:36:28 10° 272° (W) 23:36:36 145.980
RS-15 19 Dec 23:40:20 23:47:24 19° 262° (W) 23:54:41 29.354- 29.394
YUBILEINY 19 Dec 23:43:56 23:52:24 58° 91° (E) 00:00:52 435.215
BEESAT 2 19 Dec 23:50:28 23:52:40 14° 251° (WSW) 23:54:52 435.950
UNISAT 6 19 Dec 23:50:37 23:54:50 34° 292° (WNW) 23:59:04 437.425
TISAT 1 19 Dec 23:58:30 00:02:34 48° 260° (W) 00:06:39 437.305
SPROUT 19 Dec 23:58:48 00:02:59 54° 260° (W) 00:07:12 437.525
DUCHIFAT 1 20 Dec 00:01:45 00:05:36 34° 291° (WNW) 00:09:28 145.980
BUGSAT 1 20 Dec 00:05:04 00:08:48 37° 290° (WNW) 00:12:33 437.445
O/OREOS (USA 219) 20 Dec 00:05:36 00:08:49 20° 101° (ESE) 00:12:03 437.305
QB50P2 20 Dec 00:14:55 00:18:26 26° 293° (WNW) 00:21:58 145.880/145.840
SWISSCUBE 20 Dec 00:20:22 00:24:58 48° 70° (ENE) 00:29:35 437.505
ITUPSAT 1 20 Dec 00:20:32 00:25:05 44° 70° (ENE) 00:29:39 437.325
ANTELSAT 20 Dec 00:23:19 00:26:26 18° 297° (WNW) 00:29:34 437.575/2403.000
POLYITAN 1 20 Dec 00:23:39 00:26:54 22° 295° (WNW) 00:30:10 437.675
NANOSAT C BR1 20 Dec 00:26:46 00:29:53 20° 295° (WNW) 00:33:00 145.865
KKS-1 20 Dec 00:29:06 00:30:42 12° 59° (ENE) 00:32:18 437.445
AUBIESAT-1 20 Dec 00:30:17 00:34:46 39° 64° (ENE) 00:39:19 437.475
QB50P1 20 Dec 00:41:36 00:44:00 15° 298° (WNW) 00:46:24 145.935-145.965
BEESAT 20 Dec 00:45:20 00:50:07 77° 74° (ENE) 00:54:56 436.000
M-CUBED/EXP-1 PRIME 20 Dec 00:54:52 00:59:41 72° 69° (ENE) 01:04:36 437.505
Oscar 19 20 Dec 01:13:38 01:18:24 35° 97° (E) 01:23:07 437.125/150
ITAMSAT 1 20 Dec 01:28:27 01:31:56 18° 91° (E) 01:35:24 435.822/435.867
YUBILEINY 20 Dec 01:41:54 01:49:38 34° 292° (WNW) 01:57:23 435.215
O/OREOS (USA 219) 20 Dec 01:43:40 01:47:54 43° 299° (WNW) 01:52:11 437.305
ITUPSAT 1 20 Dec 01:59:27 02:03:10 22° 267° (W) 02:06:53 437.325
SWISSCUBE 20 Dec 01:59:33 02:03:04 20° 267° (W) 02:06:36 437.505
STARS 20 Dec 02:00:21 02:04:41 65° 73° (ENE) 02:09:03 437.465
KKS-1 20 Dec 02:02:15 02:06:41 82° 257° (WSW) 02:11:09 437.445
AUBIESAT-1 20 Dec 02:05:39 02:09:45 28° 261° (W) 02:13:57 437.475
BEESAT 20 Dec 02:26:36 02:28:31 12° 271° (W) 02:30:27 436.000
M-CUBED/EXP-1 PRIME 20 Dec 02:32:22 02:35:08 15° 266° (W) 02:37:56 437.505
VERMONT LUNAR 20 Dec 02:48:36 02:50:08 12° 150° (SSE) 02:51:39 437.305
Oscar 19 20 Dec 02:53:05 02:57:39 32° 294° (WNW) 03:02:12 437.125/150
Gurwin Techsat 1B 20 Dec 02:57:17 03:02:37 73° 103° (ESE) 03:07:54 435.225
AIST 1 20 Dec 02:58:40 03:02:16 26° 73° (ENE) 03:05:50
PHONESAT 2.4 20 Dec 02:59:56 03:00:29 10° 148° (SSE) 03:01:02 2401.200-2431.200
ITAMSAT 1 20 Dec 03:06:44 03:11:49 60° 288° (WNW) 03:16:54 435.822/435.867
MOZHAYETS 4 20 Dec 03:07:43 03:10:51 18° 63° (ENE) 03:13:59
HORYU 2 20 Dec 03:22:41 03:27:07 52° 100° (E) 03:31:31 437.375
STARS 20 Dec 03:39:42 03:41:36 13° 270° (W) 03:43:31 437.465
GONETS M04 20 Dec 03:48:41 03:52:09 13° 72° (ENE) 03:55:36
AO-7 20 Dec 03:50:42 03:58:26 39° 98° (E) 04:06:06 29.400- 29.500
SO-50 20 Dec 03:57:24 03:59:56 14° 31° (NNE) 04:02:29 436.795
PRISM 20 Dec 04:09:07 04:10:37 12° 60° (ENE) 04:12:07 437.425
VERMONT LUNAR 20 Dec 04:24:37 04:27:51 34° 166° (SSE) 04:31:05 437.305
JAS-2 20 Dec 04:26:58 04:31:26 24° 91° (E) 04:35:38 435.910
CUBESAT XI-V 20 Dec 04:31:28 04:32:15 10° 58° (ENE) 04:33:01 437.345
PHONESAT 2.4 20 Dec 04:35:16 04:38:30 31° 163° (SSE) 04:41:45 2401.200-2431.200
AIST 1 20 Dec 04:36:15 04:39:53 27° 271° (W) 04:43:30
Gurwin Techsat 1B 20 Dec 04:38:37 04:41:59 17° 301° (WNW) 04:45:20 435.225
MOZHAYETS 4 20 Dec 04:43:06 04:47:39 54° 260° (W) 04:52:15
HORYU 2 20 Dec 05:00:20 05:03:24 18° 297° (WNW) 05:06:27 437.375
SO-50 20 Dec 05:36:40 05:41:30 59° 51° (NE) 05:46:21 436.795
GONETS M04 20 Dec 05:38:26 05:47:09 68° 93° (E) 05:55:53
PRISM 20 Dec 05:41:19 05:45:33 77° 257° (WSW) 05:49:48 437.425
AO-7 20 Dec 05:43:22 05:51:23 52° 298° (WNW) 05:59:21 29.400- 29.500
Cubesat XI-IV 20 Dec 05:57:08 06:01:54 33° 96° (E) 06:06:38 437.490
STRAND 1 20 Dec 05:59:42 06:04:46 67° 73° (ENE) 06:09:51 437.568
VERMONT LUNAR 20 Dec 06:02:28 06:05:53 47° 183° (S) 06:09:17 437.305
CUBESAT XI-V 20 Dec 06:04:13 06:08:54 82° 76° (ENE) 06:13:35 437.345
JAS-2 20 Dec 06:11:25 06:16:55 47° 292° (WNW) 06:21:57 435.910
PHONESAT 2.4 20 Dec 06:13:22 06:16:52 48° 180° (S) 06:20:23 2401.200-2431.200
CUTE-I 20 Dec 06:30:16 06:35:33 63° 102° (ESE) 06:40:49 437.470
SO-50 20 Dec 07:18:06 07:21:39 20° 249° (WSW) 07:25:13 436.795
Cubesat XI-IV 20 Dec 07:37:12 07:41:59 35° 294° (WNW) 07:46:45 437.490
GONETS M04 20 Dec 07:37:14 07:44:40 30° 294° (WNW) 07:52:10
AO-7 20 Dec 07:38:35 07:42:15 14° 320° (NW) 07:45:56 29.400- 29.500
VERMONT LUNAR 20 Dec 07:40:49 07:43:51 27° 199° (SSW) 07:46:52 437.305
STRAND 1 20 Dec 07:41:23 07:44:26 16° 270° (W) 07:47:29 437.568
CUBESAT XI-V 20 Dec 07:45:40 07:46:55 11° 272° (W) 07:48:10 437.345
PHONESAT 2.4 20 Dec 07:52:00 07:55:15 31° 197° (SSW) 07:58:29 2401.200-2431.200
HO-68 20 Dec 07:53:55 07:58:51 20° 90° (E) 08:03:44 435.675
CANX-2 20 Dec 08:10:13 08:13:06 17° 91° (E) 08:15:58 2200.000
CUTE-I 20 Dec 08:11:25 08:15:08 20° 300° (WNW) 08:18:50 437.470
BRITE-PL 20 Dec 08:20:23 08:24:17 25° 95° (E) 08:28:25 437.365/2234.400
COMPASS 1 20 Dec 08:33:10 08:36:20 20° 93° (E) 08:39:29 437.405
SEEDS 20 Dec 08:37:43 08:41:22 26° 95° (E) 08:44:58 437.485
CUTE 1.7 + AOD 2 20 Dec 08:40:20 08:44:15 32° 96° (E) 08:48:07 437.475
CUSAT 1 20 Dec 08:45:36 08:47:52 15° 80° (E) 08:50:30 437.405
TIGRISAT 20 Dec 08:47:29 08:50:03 16° 61° (ENE) 08:52:40 435.000
GOMX 1 20 Dec 08:49:09 08:53:30 35° 97° (E) 08:58:07 467.674
DELFI C3 20 Dec 08:53:51 08:55:23 12° 89° (E) 08:56:53 145.870
DX 1 20 Dec 08:54:09 08:55:11 11° 89° (E) 08:56:12 434.975-435.025
POPSAT HIP 1 20 Dec 08:54:48 08:56:14 12° 60° (ENE) 08:57:40 437.405
MaSat-1 20 Dec 09:03:29 09:05:47 69° 116° (ESE) 09:08:00 437.345
UNISAT 6 20 Dec 09:14:58 09:18:43 29° 67° (ENE) 09:22:34 437.425
Oscar 11 20 Dec 09:15:15 09:18:55 25° 95° (E) 09:22:32 145.826/435.025
DOVE 4 20 Dec 09:16:31 09:21:08 49° 99° (E) 09:25:59 437.250
DUCHIFAT 1 20 Dec 09:21:04 09:24:14 21° 65° (ENE) 09:27:24 145.980
BUGSAT 1 20 Dec 09:22:41 09:25:24 18° 64° (ENE) 09:28:07 437.445
UKube-1 20 Dec 09:23:42 09:27:07 22° 94° (E) 09:30:30 .
CUBEBUG 2 20 Dec 09:31:46 09:35:43 27° 95° (E) 09:39:42 437.445
PHONESAT 2.4 20 Dec 09:32:39 09:33:15 10° 212° (SSW) 09:33:51 2401.200-2431.200
AAUSAT CUBESAT 2 20 Dec 09:32:56 09:37:13 79° 102° (ESE) 09:41:26 437.432
DANDE 20 Dec 09:33:40 09:36:57 39° 91° (E) 09:41:16 436.750
QB50P2 20 Dec 09:33:44 09:37:22 29° 68° (ENE) 09:41:01 145.880/145.840
HO-68 20 Dec 09:40:09 09:47:20 81° 289° (WNW) 09:54:28 435.675
POLYITAN 1 20 Dec 09:42:10 09:46:00 35° 69° (ENE) 09:49:51 437.675
ZACube-1 20 Dec 09:44:21 09:48:09 26° 95° (E) 09:51:58 437.345
NANOSAT C BR1 20 Dec 09:44:44 09:48:36 37° 70° (ENE) 09:52:29 145.865
CINEMA 3 20 Dec 09:45:08 09:49:48 58° 100° (E) 09:54:37 145.822/145.860
CANX-2 20 Dec 09:45:08 09:49:17 46° 288° (WNW) 09:53:24 2200.000
VELOX 1 20 Dec 09:45:57 09:48:14 14° 90° (E) 09:50:31 145.980
ANTELSAT 20 Dec 09:46:11 09:50:28 59° 73° (ENE) 09:54:55 437.575/2403.000
RS-15 20 Dec 09:47:28 09:51:16 12° 94° (E) 09:55:04 29.354- 29.394
YUBILEINY 20 Dec 09:52:26 09:59:54 31° 66° (ENE) 10:07:18 435.215
QB50P1 20 Dec 09:58:48 10:02:53 52° 72° (ENE) 10:07:00 145.935-145.965
